Location: Krakow
(50.0830°N, 19.9170°E)
Time: 14:07:42
(UTC+02:00)

Tiros 1 - Pass Details

Date: 02 February 2023
Orbit: 627 x 662 km, 48.4° (Epoch: 01 April)

Event Time Altitude Azimuth Distance (km) Brightness Sun altitude
Exits shadow 03:04:53 11° 92° (E) 1,996 10.2 -39.5°
Drops below altitude 10° 03:05:00 10° 91° (E) 2,037 10.3 -39.5°
Sets 03:07:21 0° 90° (E) 2,954 11.3 -39.1°
